Location: Bats
(43.6587°N, 0.4584°W)
Time: 06:26:35
(UTC+00:00)

PSLV R/B - Pass Details

Date: 12 January 2026
Orbit: 560 x 588 km, 98.0° (Epoch: 10 February)

Event Time Altitude Azimuth Distance (km) Brightness Sun altitude
Rises 17:49:16 0° 136° (SE) 2,795 6.7 -11.1°
Reaches altitude 10° 17:51:39 10° 124° (SE) 1,904 5.7 -11.5°
Maximum altitude 17:55:06 26° 67° (ENE) 1,170 4.4 -12.1°
Drops below altitude 10° 17:58:34 10° 11° (N) 1,924 5.8 -12.7°
Sets 18:01:00 0° 359° (N) 2,831 6.8 -13.1°
